Fairfield, NJ

6:17 PM EST on December 06, 2016 (GMT -0500)
Essex County

Weather History for KCDW - January, 2012

Change the Weather History Date:

Tuesday, January 24, 2012

  Actual Average Record
Temperature  
Mean Temperature 45 °F -  
Max Temperature 51 °F 40 °F 60 °F (1957)
Min Temperature 39 °F 21 °F -1 °F (1963)
Degree Days  
Heating Degree Days 20    
Moisture  
Dew Point 36 °F    
Average Humidity 73    
Maximum Humidity 96    
Minimum Humidity 52    
Precipitation  
Precipitation 0.00 in - - ()
Sea Level Pressure  
Sea Level Pressure 30.03 in    
Wind  
Wind Speed 5 mph (West)    
Max Wind Speed 14 mph    
Max Gust Speed 21 mph    
Visibility 9 miles    
Events      
Averages and records for this station are not official NWS values.
T = Trace of Precipitation, MM = Missing Value Source: NWS Daily Summary

Daily Weather History Graph

Daily Weather History Graph

Search for Another Location

Airport or City:

Trip Planner

Search our weather history database for the weather conditions in past years. The results will help you decide how hot, cold, wet, or windy it might be!

Date:

Astronomy

Jan. 24, 2012 Rise Set
Actual Time 7:14 AM EST 5:04 PM EST
Civil Twilight 6:45 AM EST 5:33 PM EST
Nautical Twilight 6:11 AM EST 6:06 PM EST
Astronomical Twilight 5:39 AM EST 6:39 PM EST
Moon 7:41 AM EST (1/24) 6:53 PM EST (1/24)
Length of Visible Light 10h 48m
Length of Day
9h 49m
New Moon, 2% of the Moon is Illuminated
Jan 24
New Moon
Jan 30
First Quarter
Feb 7
Full
Feb 14
Last Quarter
Feb 21
New

Hourly Weather History & Observations

Time (EST) Temp. Windchill Dew Point Humidity Pressure Visibility Wind Dir Wind Speed Gust Speed Precip Events Conditions
12:53 AM 48.0 °F - 46.0 °F 93% 29.92 in 9.0 mi WSW 4.6 mph - N/A   Overcast
1:53 AM 46.0 °F 44.8 °F 45.0 °F 96% 29.94 in 6.0 mi West 3.5 mph - N/A   Overcast
2:53 AM 46.0 °F 44.8 °F 44.1 °F 93% 29.96 in 8.0 mi SW 3.5 mph - N/A   Overcast
3:53 AM 44.1 °F - 43.0 °F 96% 29.95 in 5.0 mi Calm Calm - N/A   Overcast
4:25 AM 44.6 °F 41.4 °F 42.8 °F 93% 29.95 in 7.0 mi WNW 5.8 mph - N/A   Overcast
4:53 AM 43.0 °F 38.8 °F 39.9 °F 89% 29.98 in 10.0 mi West 6.9 mph - N/A   Overcast
5:53 AM 42.1 °F 39.2 °F 37.9 °F 85% 29.98 in 10.0 mi West 4.6 mph - N/A   Scattered Clouds
6:53 AM 39.0 °F - 37.0 °F 93% 30.00 in 7.0 mi Calm Calm - N/A   Clear
7:53 AM 39.0 °F - 37.9 °F 96% 30.02 in 4.0 mi Calm Calm - N/A   Clear
9:53 AM 46.0 °F - 39.0 °F 76% 30.04 in 10.0 mi Calm Calm - N/A   Clear
10:53 AM 50.0 °F - 37.0 °F 61% 30.04 in 10.0 mi WNW 9.2 mph 20.7 mph N/A   Clear
11:53 AM 50.0 °F - 36.0 °F 59% 30.01 in 10.0 mi WNW 13.8 mph 20.7 mph N/A   Clear
12:53 PM 51.1 °F - 35.1 °F 54% 29.99 in 10.0 mi NW 13.8 mph 20.7 mph N/A   Clear
1:53 PM 50.0 °F - 35.1 °F 57% 29.99 in 10.0 mi WNW 12.7 mph - N/A   Clear
2:53 PM 50.0 °F - 35.1 °F 57% 30.01 in 10.0 mi WNW 11.5 mph - N/A   Clear
4:53 PM 48.0 °F - 30.9 °F 52% 30.06 in 10.0 mi WNW 6.9 mph - N/A   Mostly Cloudy
5:53 PM 45.0 °F 43.5 °F 30.9 °F 58% 30.08 in 10.0 mi West 3.5 mph - N/A   Mostly Cloudy
6:53 PM 45.0 °F 43.5 °F 30.0 °F 56% 30.10 in 10.0 mi West 3.5 mph - N/A   Mostly Cloudy
7:53 PM 44.1 °F - 30.0 °F 58% 30.12 in 10.0 mi Calm Calm - N/A   Overcast
8:53 PM 42.1 °F - 30.0 °F 62% 30.13 in 10.0 mi Calm Calm - N/A   Partly Cloudy
9:53 PM 42.1 °F 39.2 °F 30.0 °F 62% 30.14 in 10.0 mi West 4.6 mph - N/A   Mostly Cloudy
11:53 PM 42.1 °F 37.7 °F 30.0 °F 62% 30.15 in 10.0 mi WNW 6.9 mph - N/A   Overcast